| time (UTC) | temp C | wind direction | speed KPH | gust KPH | rain 1hr cm | rain 24hr cm | rain mn cm | humidity % | barometer mb |
| 20260505183002 | 6 | 308 | 9.7 | 0.0 | 0.00 | 0.00 | 0.00 | 61 | 1018.2 |
| 20260505181502 | 6 | 308 | 9.7 | 0.0 | 0.00 | 0.00 | 0.00 | 61 | 1018.2 |
| 20260505180003 | 6 | 300 | 11.3 | 0.0 | 0.00 | 0.00 | 0.00 | 61 | 1018.2 |
| 20260505174502 | 7 | 300 | 11.3 | 0.0 | 0.00 | 0.00 | 0.00 | 61 | 1018.2 |
| 20260505173002 | 7 | 300 | 11.3 | 0.0 | 0.00 | 0.00 | 0.00 | 61 | 1018.2 |
| 20260505171501 | 7 | 300 | 11.3 | 0.0 | 0.00 | 0.00 | 0.00 | 61 | 1018.2 |
| 20260505170003 | 8 | 300 | 11.3 | 0.0 | 0.00 | 0.00 | 0.00 | 61 | 1018.2 |
| 20260505164501 | 8 | 301 | 11.3 | 0.0 | 0.00 | 0.00 | 0.00 | 61 | 1018.2 |
| 20260505163002 | 8 | 301 | 11.3 | 0.0 | 0.00 | 0.00 | 0.00 | 61 | 1018.2 |
| 20260505161501 | 8 | 296 | 12.9 | 0.0 | 0.00 | 0.00 | 0.00 | 61 | 1018.2 |
| 20260505153002 | 8 | 296 | 12.9 | 0.0 | 0.00 | 0.00 | 0.00 | 61 | 1018.2 |
| 20260505151502 | 8 | 296 | 12.9 | 0.0 | 0.00 | 0.00 | 0.00 | 61 | 1018.2 |
| 20260505124502 | 10 | 299 | 8.0 | 0.0 | 0.00 | 0.00 | 0.00 | 61 | 1018.2 |
| 20260505123004 | 10 | 307 | 8.0 | 0.0 | 0.00 | 0.00 | 0.00 | 61 | 1018.2 |
| 20260505121503 | 10 | 307 | 8.0 | 0.0 | 0.00 | 0.00 | 0.00 | 61 | 1018.2 |
| 20260505120003 | 10 | 307 | 8.0 | 0.0 | 0.00 | 0.00 | 0.00 | 61 | 1018.2 |
| 20260505114504 | 10 | 317 | 6.4 | 0.0 | 0.00 | 0.00 | 0.00 | 61 | 1018.2 |
| 20260505113002 | 10 | 317 | 6.4 | 0.0 | 0.00 | 0.00 | 0.00 | 61 | 1018.2 |
| 20260505111503 | 10 | 317 | 6.4 | 0.0 | 0.00 | 0.00 | 0.00 | 61 | 1018.2 |
| 20260505101503 | 9 | 324 | 8.0 | 0.0 | 0.00 | 0.00 | 0.00 | 61 | 1018.2 |
| 20260505100002 | 10 | 325 | 9.7 | 0.0 | 0.00 | 0.00 | 0.00 | 61 | 1018.2 |
| 20260505094502 | 10 | 325 | 9.7 | 0.0 | 0.00 | 0.00 | 0.00 | 61 | 1018.2 |
| 20260505093006 | 12 | 325 | 9.7 | 0.0 | 0.00 | 0.00 | 0.00 | 61 | 1018.2 |
| 20260505090002 | 12 | 325 | 9.7 | 0.0 | 0.00 | 0.00 | 0.00 | 61 | 1018.2 |
| 20260505084502 | 11 | 321 | 11.3 | 0.0 | 0.00 | 0.00 | 0.00 | 61 | 1018.2 |
| 20260505083005 | 12 | 321 | 11.3 | 0.0 | 0.00 | 0.00 | 0.00 | 61 | 1018.2 |
| 20260505081502 | 12 | 321 | 11.3 | 0.0 | 0.00 | 0.00 | 0.00 | 61 | 1018.2 |
| 20260505080004 | 11 | 306 | 11.3 | 0.0 | 0.00 | 0.00 | 0.00 | 61 | 1018.2 |
| 20260505074502 | 13 | 306 | 11.3 | 0.0 | 0.00 | 0.00 | 0.00 | 61 | 1018.2 |
| 20260505073004 | 11 | 306 | 11.3 | 0.0 | 0.00 | 0.00 | 0.00 | 61 | 1018.2 |
| 20260505071503 | 11 | 306 | 11.3 | 0.0 | 0.00 | 0.00 | 0.00 | 61 | 1018.2 |
| 20260505070005 | 9 | 306 | 11.3 | 0.0 | 0.00 | 0.00 | 0.00 | 61 | 1018.2 |
| 20260505064501 | 5 | 294 | 12.9 | 0.0 | 0.00 | 0.00 | 0.00 | 61 | 1018.2 |
| 20260505063005 | 2 | 294 | 12.9 | 0.0 | 0.00 | 0.00 | 0.00 | 61 | 1018.2 |
| 20260505061501 | 2 | 290 | 12.9 | 0.0 | 0.00 | 0.00 | 0.00 | 61 | 1018.2 |
| 20260505060003 | 1 | 290 | 12.9 | 0.0 | 0.00 | 0.00 | 0.00 | 61 | 1018.2 |
| 20260505054501 | 1 | 290 | 12.9 | 0.0 | 0.00 | 0.00 | 0.00 | 61 | 1018.2 |
| 20260505053003 | 1 | 290 | 12.9 | 0.0 | 0.00 | 0.00 | 0.00 | 61 | 1018.2 |
| 20260505051502 | 1 | 290 | 12.9 | 0.0 | 0.00 | 0.00 | 0.00 | 61 | 1018.2 |
| 20260505041502 | 0 | 296 | 14.5 | 0.0 | 0.00 | 0.00 | 0.00 | 61 | 1018.2 |
| 20260505040005 | 0 | 296 | 14.5 | 0.0 | 0.00 | 0.00 | 0.00 | 61 | 1018.2 |
| 20260505034502 | 0 | 299 | 14.5 | 0.0 | 0.00 | 0.00 | 0.00 | 61 | 1018.2 |
| 20260505033002 | 1 | 299 | 14.5 | 0.0 | 0.00 | 0.00 | 0.00 | 61 | 1018.2 |
| 20260505031501 | 1 | 299 | 14.5 | 0.0 | 0.00 | 0.00 | 0.00 | 61 | 1018.2 |
| 20260505030002 | 1 | 299 | 14.5 | 0.0 | 0.00 | 0.00 | 0.00 | 61 | 1018.2 |
| 20260505023002 | 1 | 295 | 12.9 | 0.0 | 0.00 | 0.00 | 0.00 | 61 | 1018.2 |
| 20260505021501 | 1 | 295 | 12.9 | 0.0 | 0.00 | 0.00 | 0.00 | 61 | 1018.2 |
| 20260505020004 | 1 | 294 | 12.9 | 0.0 | 0.00 | 0.00 | 0.00 | 61 | 1018.2 |
| 20260505014504 | 1 | 294 | 12.9 | 0.0 | 0.00 | 0.00 | 0.00 | 61 | 1018.2 |
| 20260505013003 | 1 | 294 | 12.9 | 0.0 | 0.00 | 0.00 | 0.00 | 61 | 1018.2 |
| 20260505011503 | 2 | 294 | 12.9 | 0.0 | 0.00 | 0.00 | 0.00 | 61 | 1018.2 |
| 20260505010004 | 2 | 294 | 12.9 | 0.0 | 0.00 | 0.00 | 0.00 | 61 | 1018.2 |
| 20260505004502 | 2 | 288 | 14.5 | 0.0 | 0.00 | 0.00 | 0.00 | 61 | 1018.2 |
| 20260505003002 | 1 | 288 | 14.5 | 0.0 | 0.00 | 0.00 | 0.00 | 61 | 1018.2 |
| 20260505001502 | 1 | 288 | 14.5 | 0.0 | 0.00 | 0.00 | 0.00 | 61 | 1018.2 |
| 20260504234502 | 2 | 274 | 14.5 | 0.0 | 0.00 | 0.00 | 0.00 | 61 | 1018.2 |
| 20260504233004 | 2 | 274 | 14.5 | 0.0 | 0.00 | 0.00 | 0.00 | 61 | 1018.2 |
| 20260504231502 | 2 | 274 | 14.5 | 0.0 | 0.00 | 0.00 | 0.00 | 61 | 1018.2 |
| 20260504230002 | 3 | 274 | 19.3 | 0.0 | 0.00 | 0.00 | 0.00 | 61 | 1018.2 |
| 20260504224502 | 3 | 274 | 19.3 | 0.0 | 0.00 | 0.00 | 0.00 | 61 | 1018.2 |
| 20260504223002 | 3 | 274 | 19.3 | 0.0 | 0.00 | 0.00 | 0.00 | 61 | 1018.2 |
| 20260504221502 | 3 | 293 | 12.9 | 0.0 | 0.00 | 0.00 | 0.00 | 61 | 1018.2 |
| 20260504220003 | 4 | 293 | 12.9 | 0.0 | 0.00 | 0.00 | 0.00 | 61 | 1018.2 |
| 20260504214502 | 4 | 293 | 12.9 | 0.0 | 0.00 | 0.00 | 0.00 | 61 | 1018.2 |
| 20260504213003 | 5 | 293 | 12.9 | 0.0 | 0.00 | 0.00 | 0.00 | 61 | 1018.2 |
| 20260504211503 | 5 | 293 | 12.9 | 0.0 | 0.00 | 0.00 | 0.00 | 61 | 1018.2 |
| 20260504210002 | 5 | 293 | 12.9 | 0.0 | 0.00 | 0.00 | 0.00 | 61 | 1018.2 |
| 20260504204502 | 6 | 293 | 12.9 | 0.0 | 0.00 | 0.00 | 0.00 | 61 | 1018.2 |
| 20260504203002 | 6 | 281 | 14.5 | 0.0 | 0.00 | 0.00 | 0.00 | 61 | 1018.2 |
| 20260504201502 | 6 | 281 | 14.5 | 0.0 | 0.00 | 0.00 | 0.00 | 61 | 1018.2 |
| 20260504200004 | 6 | 281 | 14.5 | 0.0 | 0.00 | 0.00 | 0.00 | 61 | 1018.2 |
| 20260504194502 | 6 | 250 | 16.1 | 0.0 | 0.00 | 0.00 | 0.00 | 61 | 1018.2 |
| 20260504193003 | 7 | 250 | 16.1 | 0.0 | 0.00 | 0.00 | 0.00 | 61 | 1018.2 |
| 20260504191502 | 7 | 250 | 16.1 | 0.0 | 0.00 | 0.00 | 0.00 | 61 | 1018.2 |
| 20260504190003 | 8 | 250 | 16.1 | 0.0 | 0.00 | 0.00 | 0.00 | 61 | 1018.2 |
| 20260504184502 | 8 | 250 | 16.1 | 0.0 | 0.00 | 0.00 | 0.00 | 61 | 1018.2 |